Weather History for San Angelo, TX

Change the Weather History Date:

Saturday, October 19, 2013

  Actual Average Record
Temperature  
Mean Temperature 52 °F 65 °F  
Max Temperature 64 °F 78 °F 95 °F (1995)
Min Temperature 39 °F 53 °F 28 °F (1989)
Degree Days  
Heating Degree Days 13 3  
Month to date heating degree days 46 32  
Since 1 July heating degree days 46 41  
Cooling Degree Days 0 3  
Month to date cooling degree days 112 90  
Year to date cooling degree days 2826 2455  
Growing Degree Days 2 (Base 50)    
Moisture  
Dew Point 39 °F    
Average Humidity 64    
Maximum Humidity 92    
Minimum Humidity 36    
Precipitation  
Precipitation 0.00 in 0.10 in 0.48 in (1930)
Month to date precipitation 1.39 1.75  
Year to date precipitation 17.77 18.28  
Snow  
Snow 0.00 in 0.00 in 0.00 in (2002)
Month to date snowfall 0.0 0.0  
Since 1 July snowfall 0.0 0.0  
Snow Depth 0.00 in    
Sea Level Pressure  
Sea Level Pressure 30.18 in    
Wind  
Wind Speed 6 mph (North)    
Max Wind Speed 15 mph    
Max Gust Speed 17 mph    
Visibility 10 miles    
Events      
T = Trace of Precipitation, MM = Missing Value Source: NWS Daily Summary

Daily Weather History Graph

Daily Weather History Graph

Search for Another Location

Airport:

Trip Planner

Search our weather history database for the weather conditions in past years. The results will help you decide how hot, cold, wet, or windy it might be!

Date:

Astronomy

Oct. 19, 2013 Rise Set
Actual Time 7:47 AM CDT 7:05 PM CDT
Civil Twilight 7:23 AM CDT 7:29 PM CDT
Nautical Twilight 6:55 AM CDT 7:58 PM CDT
Astronomical Twilight 6:26 AM CDT 8:26 PM CDT
Moon 7:39 PM CDT (10/19) 8:23 AM CDT (10/19)
Length of Visible Light 12h 06m
Length of Day
11h 17m
Waxing Gibbous, 99% of the Moon is Illuminated
Oct 19
Waxing Gibbous
Oct 26
Last Quarter
Nov 3
New
Nov 9
First Quarter
Nov 17
Full

Hourly Weather History & Observations

Time (CDT) Temp. Windchill Dew Point Humidity Pressure Visibility Wind Dir Wind Speed Gust Speed Precip Events Conditions
12:51 AM 48.0 °F - 39.9 °F 74% 30.18 in 10.0 mi NNE 12.7 mph - N/A   Overcast
1:22 AM 48.2 °F - 39.2 °F 71% 30.21 in 10.0 mi NNE 10.4 mph - N/A   Overcast
1:51 AM 46.0 °F 40.6 °F 39.9 °F 79% 30.19 in 10.0 mi North 11.5 mph - N/A   Overcast
2:09 AM 46.4 °F 40.7 °F 39.2 °F 76% 30.21 in 10.0 mi North 12.7 mph - N/A   Overcast
2:51 AM 45.0 °F 40.1 °F 39.0 °F 80% 30.20 in 10.0 mi North 9.2 mph - N/A   Overcast
3:21 AM 44.6 °F 40.2 °F 39.2 °F 81% 30.22 in 10.0 mi North 8.1 mph - N/A   Partly Cloudy
3:51 AM 43.0 °F 37.7 °F 39.0 °F 86% 30.20 in 10.0 mi North 9.2 mph - N/A   Clear
4:51 AM 42.1 °F 37.7 °F 39.0 °F 89% 30.20 in 10.0 mi NNW 6.9 mph - N/A   Clear
5:51 AM 41.0 °F 36.4 °F 37.9 °F 89% 30.22 in 10.0 mi NW 6.9 mph - N/A   Clear
6:51 AM 39.9 °F 34.5 °F 37.0 °F 89% 30.23 in 10.0 mi NNW 8.1 mph - N/A   Clear
7:51 AM 39.0 °F 34.8 °F 36.0 °F 89% 30.26 in 10.0 mi WNW 5.8 mph - N/A   Clear
8:51 AM 42.1 °F 37.7 °F 37.9 °F 85% 30.28 in 10.0 mi WNW 6.9 mph - N/A   Clear
9:51 AM 46.0 °F 41.4 °F 37.9 °F 73% 30.29 in 10.0 mi WNW 9.2 mph - N/A   Clear
10:51 AM 50.0 °F - 36.0 °F 59% 30.27 in 10.0 mi North 8.1 mph - N/A   Clear
11:51 AM 53.1 °F - 37.0 °F 55% 30.26 in 10.0 mi NW 4.6 mph - N/A   Clear
12:51 PM 55.9 °F - 36.0 °F 47% 30.22 in 10.0 mi Calm Calm - N/A   Clear
1:51 PM 59.0 °F - 36.0 °F 42% 30.19 in 10.0 mi Calm Calm - N/A   Clear
2:51 PM 62.1 °F - 36.0 °F 38% 30.15 in 10.0 mi NW 3.5 mph - N/A   Clear
3:51 PM 63.0 °F - 37.0 °F 38% 30.13 in 10.0 mi ENE 4.6 mph - N/A   Clear
4:51 PM 63.0 °F - 37.9 °F 40% 30.12 in 10.0 mi Calm Calm - N/A   Clear
5:51 PM 63.0 °F - 37.9 °F 40% 30.10 in 10.0 mi Variable 4.6 mph - N/A   Clear
6:51 PM 60.1 °F - 43.0 °F 53% 30.09 in 10.0 mi East 4.6 mph - N/A   Clear
7:51 PM 54.0 °F - 44.1 °F 69% 30.10 in 10.0 mi East 5.8 mph - N/A   Clear
8:51 PM 52.0 °F - 44.1 °F 74% 30.10 in 10.0 mi SE 4.6 mph - N/A   Clear
9:51 PM 50.0 °F - 42.1 °F 74% 30.10 in 10.0 mi South 5.8 mph - N/A   Clear
10:51 PM 48.9 °F - 41.0 °F 74% 30.09 in 10.0 mi South 6.9 mph - N/A   Clear
11:51 PM 48.0 °F - 41.0 °F 77% 30.08 in 10.0 mi South 3.5 mph - N/A   Clear